User: anonymous
Location: NJAA Observatory
(40.6819°N, 74.8979°W)
Time: 05:05:55
(UTC-04:00)
Language:

Cosmos 1633 - Orbit

View from above orbital plane
View from above orbital plane
View from above satellite
View from above satellite

Ground track
Ground track

The orbit data is extracted from the following two-line orbital elements,

1 15592U 85020A   14238.13319883  .00003852  00000-0  18125-3 0  5276
2 15592 082.5379 262.1353 0017881 181.9447 236.3141 15.19124339607909
Epoch (UTC): 26 August 2014 03:11:48
Eccentricity: 0.0017881
inclination: 82.5379°
perigee height: 496 km
apogee height: 521 km
right ascension of ascending node: 262.1353°
argument of perigee: 181.9447°
revolutions per day: 15.19124339
mean anomaly at epoch: 236.3141°
orbit number at epoch: 60790

The dashed part of the orbit path shows where the satellite is in the earth's shadow,  

DLR